This demonstration page uses our WeatherBlox Daily Observations layout. Learn more.

Left ArrowRight Arrow

39.92423, -83.80882

Hourly Observations for November 28, 2015

Temp ( °F °C ) Dew Point ( °F °C ) Humidity (%) Winds ( mph kmh ) Pressure ( in mb ) Visibility ( mi km ) Precip ( " mm )
12:07 am 00:07 Cloudy with Mist and Fog 55 13 55 13 100 100 S 12 19 30.24 1024 4 6.43736 0.01 0.254
12:20 am 00:20 Cloudy with Mist and Fog 55 13 55 13 100 100 SSW 12 19 30.24 1024 6 9.65604 0.01 0.254
12:56 am 00:56 Cloudy with Mist and Fog 56 13.3 56 13.3 100 100 SSW 10 17 30.24 1024 2.5 4.02335 0.02 0.508
1:04 am 01:04 Cloudy with Mist and Fog 55 13 55 13 100 100 SSW 9 15 30.24 1024 2.5 4.02335 0.01 0.254
1:19 am 01:19 Cloudy with Mist and Fog 55 13 55 13 100 100 S 10 17 30.24 1024 2 3.21868 0.03 0.762
1:56 am 01:56 Cloudy with Mist and Fog 56 13.3 56 13.3 100 100 WSW 8 13 30.22 1024 2.5 4.02335 0.05 1.27
2:45 am 02:45 Cloudy with Light Rain 50 10 50 10 100 100 NNE 7 11 30.27 1025 1.75 2.816345 0.02 0.508
2:56 am 02:56 Cloudy with Light Rain 49 9.4 49 9.4 100 100 NNE 9 15 30.23 1024 2 3.21868 0.02 0.508
3:17 am 03:17 Cloudy with Rain 46 8 46 8 100 100 NNE 12 19 30.27 1025 1.5 2.41401 0.03 0.762
3:45 am 03:45 Cloudy with Light Rain 45 7 45 7 100 100 NNE 8 13 30.27 1025 2.5 4.02335 0.05 1.27
3:56 am 03:56 Cloudy with Light Rain 44 6.6 44 6.6 100 100 NNE 9 15 30.23 1024 2.5 4.02335 0.06 1.524
4:39 am 04:39 Cloudy with Mist and Fog 43 6 43 6 100 100 NNE 9 15 30.27 1025 1.75 2.816345 0.01 0.254
4:48 am 04:48 Cloudy with Mist and Fog 43 6 43 6 100 100 NNE 13 20 30.27 1025 2 3.21868 0.01 0.254
4:56 am 04:56 Cloudy with Mist and Fog 42 5.5 42 5.5 100 100 NNE 13 20 30.23 1024 2.5 4.02335 0.01 0.254
5:03 am 05:03 Cloudy with Mist and Fog 43 6 43 6 100 100 NE 13 20 30.27 1025 4 6.43736 0 0
5:26 am 05:26 Cloudy with Mist and Fog 43 6 43 6 100 100 NE 12 19 30.27 1025 5 8.0467 0 0
5:56 am 05:56 Cloudy with Light Rain 42 5.5 42 5.5 100 100 NE 12 19 30.24 1024 3 4.82802 0.01 0.254
6:09 am 06:09 Cloudy with Light Rain 41 5 41 5 100 100 NE 10 17 30.3 1026 2.5 4.02335 0.01 0.254
6:19 am 06:19 Cloudy with Light Rain 41 5 41 5 100 100 NE 8 13 30.3 1026 2 3.21868 0.02 0.508
6:30 am 06:30 Cloudy with Rain 41 5 41 5 100 100 NE 10 17 30.3 1026 2 3.21868 0.03 0.762
6:35 am 06:35 Cloudy with Light Rain 41 5 41 5 100 100 NE 9 15 30.3 1026 1.75 2.816345 0.04 1.016
6:56 am 06:56 Cloudy with Light Rain 41 5 41 5 100 100 NE 9 15 30.26 1025 2.5 4.02335 0.06 1.524
7:08 am 07:08 Cloudy with Light Rain 41 5 41 5 100 100 NE 7 11 30.33 1027 1.75 2.816345 0.02 0.508
7:14 am 07:14 Cloudy with Light Rain 41 5 41 5 100 100 NE 7 11 30.33 1027 3 4.82802 0.02 0.508
7:37 am 07:37 Cloudy with Mist and Fog 41 5 41 5 100 100 ENE 12 19 30.3 1026 5 8.0467 0.02 0.508
7:56 am 07:56 Cloudy 41 5 41 5 100 100 NNE 9 15 30.26 1025 7 11.26538 0.02 0.508
8:14 am 08:14 Cloudy with Light Rain 41 5 41 5 100 100 NNE 10 17 30.33 1027 2 3.21868 0 0.0254
8:29 am 08:29 Cloudy with Light Rain 41 5 41 5 100 100 NE 13 20 30.33 1027 1.5 2.41401 0.01 0.254
8:38 am 08:38 Cloudy with Light Rain 41 5 41 5 100 100 NNE 12 19 30.33 1027 1.25 2.011675 0.02 0.508
8:56 am 08:56 Cloudy with Light Rain 41 5 41 5 100 100 NE 10 17 30.27 1025 2 3.21868 0.03 0.762
9:11 am 09:11 Cloudy with Light Rain 41 5 41 5 100 100 NE 13 20 30.33 1027 2.5 4.02335 0 0.0254
9:22 am 09:22 Cloudy with Light Rain 41 5 41 5 100 100 NNE 12 19 30.33 1027 1.75 2.816345 0 0.0254
9:37 am 09:37 Cloudy with Light Rain 41 5 41 5 100 100 NE 12 19 30.33 1027 1.25 2.011675 0.01 0.254
9:56 am 09:56 Cloudy with Light Rain 42 5.5 42 5.5 100 100 NE 12 19 30.28 1025 1.25 2.011675 0.01 0.254
10:14 am 10:14 Cloudy with Light Rain 43 6 43 6 100 100 NE 10 17 30.3 1026 1.5 2.41401 0.01 0.254
10:33 am 10:33 Cloudy with Light Rain 43 6 43 6 100 100 NNE 9 15 30.3 1026 2.5 4.02335 0.02 0.508
10:56 am 10:56 Cloudy with Light Rain 42 5.5 42 5.5 100 100 NE 10 17 30.28 1025 4 6.43736 0.03 0.762
11:56 am 11:56 Cloudy with Light Rain 41 5 41 5 100 100 NE 9 15 30.27 1025 5 8.0467 0.04 1.016
12:42 pm 12:42 Cloudy with Mist and Fog 43 6 41 5 93 93 NE 9 15 30.27 1025 1.75 2.816345 0.02 0.508
12:56 pm 12:56 Cloudy with Mist and Fog 42 5.5 41 5 97 97 NE 9 15 30.25 1025 2 3.21868 0.03 0.762
1:06 pm 13:06 Cloudy with Mist and Fog 43 6 41 5 93 93 NE 8 13 30.27 1025 1.75 2.816345 0 0
1:18 pm 13:18 Cloudy with Light Rain 43 6 43 6 100 100 NE 8 13 30.27 1025 1.25 2.011675 0 0.0254
1:30 pm 13:30 Cloudy with Light Rain 43 6 43 6 100 100 NNE 9 15 30.27 1025 1.5 2.41401 0.01 0.254
1:41 pm 13:41 Cloudy with Light Rain 43 6 43 6 100 100 NNE 9 15 30.27 1025 3 4.82802 0.01 0.254
1:48 pm 13:48 Cloudy with Mist and Fog 43 6 43 6 100 100 NE 9 15 30.27 1025 4 6.43736 0.01 0.254
1:56 pm 13:56 Cloudy with Mist and Fog 42 5.5 42 5.5 100 100 NNE 8 13 30.24 1024 5 8.0467 0.01 0.254
2:20 pm 14:20 Cloudy with Light Rain 43 6 43 6 100 100 NNE 9 15 30.24 1024 2.5 4.02335 0 0.0254
2:28 pm 14:28 Cloudy with Light Rain 43 6 43 6 100 100 NNE 8 13 30.24 1024 4 6.43736 0 0.0254
2:56 pm 14:56 Cloudy 42 5.5 42 5.5 100 100 NE 8 13 30.22 1024 10 16.0934 0 0.0254
3:41 pm 15:41 Cloudy with Light Rain 41 5 41 5 100 100 NE 12 19 30.24 1024 2.5 4.02335 0 0.0254
3:49 pm 15:49 Cloudy with Light Rain 41 5 41 5 100 100 NNE 12 19 30.24 1024 3 4.82802 0 0.0254
3:56 pm 15:56 Cloudy with Light Rain 41 5 41 5 100 100 NNE 10 17 30.24 1024 2 3.21868 0 0.0254
4:20 pm 16:20 Cloudy with Light Rain 39 4 39 4 100 100 NNE 12 19 30.3 1026 1.25 2.011675 0.01 0.254
4:41 pm 16:41 Cloudy with Light Rain 39 4 39 4 100 100 NNE 10 17 30.3 1026 1 1.60934 0.03 0.762
4:43 pm 16:43 Cloudy with Light Rain 39 4 39 4 100 100 NNE 9 15 30.3 1026 1.25 2.011675 0.03 0.762
4:56 pm 16:56 Cloudy with Light Rain 40 4.4 40 4.4 100 100 NE 9 15 30.25 1025 2 3.21868 0.03 0.762
5:08 pm 17:08 Cloudy with Light Rain 39 4 39 4 100 100 NNE 9 15 30.3 1026 6 9.65604 0.01 0.254
5:56 pm 17:56 Cloudy 40 4.4 40 4.4 100 100 NNE 9 15 30.27 1025 10 16.0934 0.01 0.254
6:11 pm 18:11 Cloudy with Light Rain 39 4 39 4 100 100 NNE 10 17 30.3 1026 1.75 2.816345 0 0.0254
6:19 pm 18:19 Cloudy with Light Rain 39 4 39 4 100 100 NE 12 19 30.3 1026 2 3.21868 0.01 0.254
6:48 pm 18:48 Cloudy with Light Rain 39 4 39 4 100 100 NNE 13 20 30.3 1026 4 6.43736 0.01 0.254
6:56 pm 18:56 Cloudy with Light Rain 39 3.8 39 3.8 100 100 NNE 13 20 30.27 1025 8 12.87472 0.01 0.254
7:08 pm 19:08 Cloudy with Light Rain 39 4 39 4 100 100 NNE 9 15 30.33 1027 10 16.0934 0 0.0254
7:32 pm 19:32 Cloudy 39 4 39 4 100 100 NNE 10 17 30.33 1027 10 16.0934 0 0.0254
7:56 pm 19:56 Cloudy with Light Rain 38 3.3 38 3.3 100 100 NNE 12 19 30.28 1025 2.5 4.02335 0 0.0254
8:24 pm 20:24 Cloudy with Light Rain 37 3 37 3 100 100 NNE 8 13 30.33 1027 3 4.82802 0 0.0254
8:56 pm 20:56 Cloudy 38 3.3 38 3.3 100 100 NE 9 15 30.28 1025 7 11.26538 0.01 0.254
9:56 pm 21:56 Cloudy 38 3.3 38 3.3 100 100 NE 10 17 30.27 1025 10 16.0934 0 0
10:22 pm 22:22 Cloudy 37 3 37 3 100 100 NE 10 17 30.3 1026 10 16.0934 0 0.0254
10:56 pm 22:56 Cloudy 38 3.3 38 3.3 100 100 NNE 8 13 30.27 1025 10 16.0934 0 0.0254
11:56 pm 23:56 Cloudy 38 3.3 38 3.3 100 100 NNE 10 17 30.28 1025 8 12.87472 0 0

Powered by AerisWeather